FLOCK 3K-7 (43902 NORAD) Tracking and Keplerian Element Data

This shows tracking and keplerian element data for the satellite.

Feedback or suggestion? Click here.




ElementValue
Catalog43902
NameFLOCK 3K-7
Epoch Orbit458
Epoch Day26.16055688
Epoch Year2019
RAAN295.2494
Inclination97.2988
Eccentricity0.0023982
Argument of Perigee135.1472
Mean Anonmoly225.171
Mean Motion15.23731038
Decay Rate3.974E-05
L11 43902U 18111AC 19026.16055688 .00003974 00000-0 16704-3 0 9991
L22 43902 97.2988 295.2494 0023982 135.1472 225.1710 15.23731038 4583

Live tracking and technical data element details for FLOCK 3K-7 (NORAD 43902). FLOCK 3K-7 can be tracked NOW for your location showing map with azimuth and elevation plus other details from your city location.

Track the satellite on the map from your city or location and see movement details for azimuth, elevation, latitude, longitude, range, height, and movement on the map or in text.







IsCatalogInMostPopularTable: catalog: 43902, numindb: 128
Update: records affected: 1



GetName: 43902 FLOCK 3K-7

Hit Count: updated at: Mon, 22 Jul 2019 03:52:44 GMT